Location: Lake Arresoe
(56.0000°N, 12.5000°E)
Time: 02:25:11
(UTC+02:00)

Resurs 1-4 Rocket - Visible Passes

Search period start: 18 June 2018 00:00
Search period end: 28 June 2018 00:00
Orbit: 800 x 813 km, 98.5° (Epoch: 17 June)

Date Brightness Start Highest point End Pass type
(mag) Time Alt. Az. Time Alt. Az. Time Alt. Az.
18 Jun 3.5 02:27:51 10° NNE 02:32:35 31° E 02:37:17 10° SSE visible
19 Jun 4.0 02:03:41 10° NE 02:07:43 21° E 02:11:43 10° SE visible
20 Jun 4.4 01:39:55 10° NE 01:42:45 14° E 01:45:34 10° ESE visible
20 Jun 2.4 03:18:16 10° NNE 03:23:36 69° ESE 03:28:55 10° S visible
21 Jun 2.9 02:53:45 10° NNE 02:58:55 47° E 03:04:02 10° S visible
22 Jun 3.5 02:29:22 10° NNE 02:34:08 32° E 02:38:52 10° SSE visible
23 Jun 4.0 02:05:10 10° NE 02:09:16 22° E 02:13:20 10° SE visible
24 Jun 4.4 01:41:22 10° NE 01:44:18 15° E 01:47:14 10° ESE visible
24 Jun 2.4 03:19:47 10° NNE 03:25:08 71° ESE 03:30:27 10° S visible
25 Jun 2.9 02:55:16 10° NNE 03:00:27 48° E 03:05:35 10° S visible
26 Jun 3.5 02:30:53 10° NNE 02:35:40 33° E 02:40:26 10° SSE visible
27 Jun 4.0 02:06:40 10° NE 02:10:49 22° E 02:14:56 10° SE visible
